"Pseudo-MPEC" for A118pzR

Created 2024 Jul 26 16:22:03 UT using Find_Orb

Click here for an explanation of pseudo-MPECs

 
 Astrometry: 
     A118pzR* C2024 07 12.59994802 40 26.124+19 25 56.46   ~7CL7 17.82oVNEOCPT08
     A118pzR  C2024 07 12.60318502 40 23.621+19 27 07.78   ~7CL7 17.68oVNEOCPT08
     A118pzR  C2024 07 12.61092102 40 17.750+19 29 58.92   ~7CL7 17.44oVNEOCPT08

Station data:
(T08) ATLAS-MLO, Mauna Loa  (N19.536150 W155.576050)  US/Hawaii.  Observers
   L. Denneau, A. Heinze, H. Weiland, J. Tonry, H. Flewelling, A.
   Fitzsimmons, D. Young, B. Stalder. Measurers L. Denneau, A. Heinze, J.
   Tonry. 0.5-m f/2.0 Schmidt + CCD.

Orbital elements:  A118pzR
   Perihelion 2024 May 23.44282 +/- 22.5 TT = 10:37:39 (JD 2460453.94282)
Epoch 2024 Jul 13.0 TT = JDT 2460504.5   Earth MOID: 0.0200   Ve: 0.0917
M  60.64693048 +/- 49               Me: 0.0257                   AutoNEOCP
n   1.19957102 +/- 0.859            Peri.  218.39958 +/- 60
a   0.87724062 +/- 0.419            Node   294.95362 +/- 44
e   0.7105567 +/- 0.213             Incl.  139.86691 +/- 55
P   0.822/300.102d         H 19.40  G  0.15   U 12.6  SR
q 0.25391133 +/- 0.306    Q 1.50056991 +/- 12.9           (J2000 ecliptic)
From 3 observations 2024 July 12 (15.8 min); mean residual 0".20
Residuals in arcseconds: 
240712 T08  .27+  .01+    240712 T08  .38-  .02-    240712 T08  .11+  .01+    

Ephemerides (geocentric):
Date (UTC) HH   RA             Dec           delta  r     elong  mag " sig PA
---- --------  ------------   ------------  ------ ------ -----  --- --------
2024 07 26 16  15 20 16.631   +01 45 05.88  .32710 1.1326 102.5 19.4  53d 116
2024 07 26 17  15 20 15.563   +01 44 08.97  .32828 1.1329 102.5 19.4  53d 116
2024 07 26 18  15 20 14.509   +01 43 12.44  .32945 1.1333 102.5 19.4  53d 116
2024 07 26 19  15 20 13.467   +01 42 16.28  .33063 1.1337 102.4 19.4  53d 116
2024 07 26 20  15 20 12.438   +01 41 20.49  .33180 1.1341 102.4 19.5  53d 116
2024 07 26 21  15 20 11.421   +01 40 25.07  .33298 1.1345 102.4 19.5  53d 116
2024 07 26 22  15 20 10.417   +01 39 30.00  .33415 1.1349 102.3 19.5  53d 116
2024 07 26 23  15 20 09.425   +01 38 35.29  .33533 1.1352 102.3 19.5  53d 116
2024 07 27 00  15 20 08.446   +01 37 40.94  .33650 1.1356 102.3 19.5  53d 116
2024 07 27 01  15 20 07.478   +01 36 46.93  .33768 1.1360 102.2 19.5  53d 116
2024 07 27 02  15 20 06.522   +01 35 53.27  .33885 1.1364 102.2 19.5  53d 116
2024 07 27 03  15 20 05.578   +01 34 59.95  .34003 1.1368 102.1 19.5  53d 116
2024 07 27 04  15 20 04.646   +01 34 06.97  .34120 1.1371 102.1 19.5  53d 116
2024 07 27 05  15 20 03.726   +01 33 14.32  .34238 1.1375 102.1 19.5  53d 116
2024 07 27 06  15 20 02.817   +01 32 22.00  .34355 1.1379 102.0 19.5  53d 116
2024 07 27 07  15 20 01.920   +01 31 30.01  .34473 1.1383 102.0 19.5  53d 116
2024 07 27 08  15 20 01.034   +01 30 38.35  .34590 1.1387 102.0 19.5  53d 116
2024 07 27 09  15 20 00.159   +01 29 47.00  .34708 1.1390 101.9 19.6  52d 116
2024 07 27 10  15 19 59.295   +01 28 55.97  .34825 1.1394 101.9 19.6  52d 117
2024 07 27 11  15 19 58.442   +01 28 05.26  .34943 1.1398 101.9 19.6  52d 117
2024 07 27 12  15 19 57.601   +01 27 14.86  .35060 1.1402 101.8 19.6  52d 117
2024 07 27 13  15 19 56.770   +01 26 24.76  .35178 1.1406 101.8 19.6  52d 117
2024 07 27 14  15 19 55.950   +01 25 34.97  .35295 1.1409 101.8 19.6  52d 117
2024 07 27 15  15 19 55.140   +01 24 45.48  .35412 1.1413 101.7 19.6  52d 117
2024 07 27 16  15 19 54.341   +01 23 56.29  .35530 1.1417 101.7 19.6  52d 117
2024 07 27 17  15 19 53.553   +01 23 07.39  .35647 1.1421 101.6 19.6  52d 117
2024 07 27 18  15 19 52.775   +01 22 18.79  .35765 1.1425 101.6 19.6  52d 117
2024 07 27 19  15 19 52.007   +01 21 30.47  .35882 1.1428 101.6 19.6  52d 117
2024 07 27 20  15 19 51.249   +01 20 42.44  .35999 1.1432 101.5 19.6  52d 117
2024 07 27 21  15 19 50.502   +01 19 54.70  .36117 1.1436 101.5 19.6  52d 117
2024 07 27 22  15 19 49.765   +01 19 07.24  .36234 1.1440 101.5 19.7  52d 117
2024 07 27 23  15 19 49.037   +01 18 20.05  .36352 1.1443 101.4 19.7  52d 117
2024 07 28 00  15 19 48.320   +01 17 33.14  .36469 1.1447 101.4 19.7  52d 117
2024 07 28 01  15 19 47.612   +01 16 46.50  .36586 1.1451 101.4 19.7  52d 117
2024 07 28 02  15 19 46.914   +01 16 00.13  .36704 1.1455 101.3 19.7  52d 117
2024 07 28 03  15 19 46.226   +01 15 14.03  .36821 1.1458 101.3 19.7  52d 117
2024 07 28 04  15 19 45.547   +01 14 28.19  .36938 1.1462 101.2 19.7  52d 117
2024 07 28 05  15 19 44.878   +01 13 42.62  .37056 1.1466 101.2 19.7  52d 117
2024 07 28 06  15 19 44.218   +01 12 57.30  .37173 1.1470 101.2 19.7  52d 117
2024 07 28 07  15 19 43.567   +01 12 12.24  .37290 1.1473 101.1 19.7  52d 117
2024 07 28 08  15 19 42.926   +01 11 27.44  .37408 1.1477 101.1 19.7  52d 117
2024 07 28 09  15 19 42.294   +01 10 42.88  .37525 1.1481 101.1 19.7  52d 117
2024 07 28 10  15 19 41.671   +01 09 58.58  .37642 1.1485 101.0 19.7  52d 117
2024 07 28 11  15 19 41.057   +01 09 14.53  .37760 1.1488 101.0 19.7  52d 117
2024 07 28 12  15 19 40.452   +01 08 30.71  .37877 1.1492 101.0 19.7  52d 117
2024 07 28 13  15 19 39.856   +01 07 47.15  .37994 1.1496 100.9 19.8  52d 117
2024 07 28 14  15 19 39.268   +01 07 03.82  .38111 1.1500 100.9 19.8  52d 117
2024 07 28 15  15 19 38.690   +01 06 20.73  .38229 1.1503 100.9 19.8  52d 117